Regional Weather Roundup
Issued by NWS

Home | Current Version | Previous Version | Text Only | Print | Product List | Glossary Off
Versions: 1 2 3 4 5 6 7 8 9 10 11 12 13 14 15 16 17 18 19 20 21 22 23 24 25 26 27 28 29 30 31 32 33 34 35 36 37 38 39 40 41 42 43 44 45 46 47 48 49 50

657
ASUS43 KMPX 130910
RWRMN
WEATHER ROUNDUP FOR MINNESOTA
NATIONAL WEATHER SERVICE TWIN CITIES/CHANHASSEN MN
300 AM CST WED DEC 13 2017


NOTE: "FAIR" INDICATES FEW OR NO CLOUDS BELOW 12,000 FEET WITH NO
SIGNIFICANT WEATHER AND/OR OBSTRUCTIONS TO VISIBILITY. N/A MEANS
CURRENT SKY AND/OR WEATHER CONDITIONS ARE NOT AVAILABLE.

MNZ060>063-068>070-131000-
   Twin Cities Metro

CITY           SKY/WX    TMP DP  RH WIND       PRES   REMARKS
TWIN CITIES    CLOUDY    29  26  89 SE8       29.41F WCI  21
ST PAUL        CLOUDY    29  25  85 SE8       29.43F WCI  21
CRYSTAL        CLOUDY    29  22  75 SE6       29.39F WCI  23
BLAINE         CLOUDY    30  27  86 SE9       29.39F WCI  22
LAKEVILLE        N/A     28  25  86 S5        29.40F WCI  23
EDEN PRAIRIE   CLOUDY    31  25  78 S5        29.39F WCI  26
SOUTH ST PAUL  CLOUDY    28  24  84 SE5       29.41F WCI  23
LAKE ELMO      MOCLDY    30  27  86 SE6       29.43F WCI  24
$$
MNZ001>005-007-008-013>017-022>024-027-028-131000-
   Northwest Minnesota

CITY           SKY/WX    TMP DP  RH WIND       PRES   REMARKS
BEMIDJI        FLURRIES  21  19  93 E6        29.38F WCI  14
HALLOCK        CLOUDY    25  21  86 N14       29.53R WCI  13
ROSEAU         CLOUDY    18  12  79 NE10      29.47R WCI   6
WARROAD        CLOUDY    16  12  86 E9        29.48R WCI   4
THIEF RVR FALL PTCLDY    26  23  88 N13       29.45R WCI  15
CROOKSTON      PTCLDY    32  30  93 N36       29.46R WCI  16
FOSSTON        CLOUDY    30  30 100 NW10      29.39R WCI  21
DETROIT LAKES  MIX PCPN  30  28  93 NW10      29.39R WCI  21
MOORHEAD       RAIN      34  30  86 NW18      29.45R WCI  23
PARK RAPIDS    CLOUDY    23  19  85 CALM      29.38R
MAHNOMEN       MIX PCPN  33  31  94 NW12      29.40R WCI  24
$$
MNZ006-009>011-018-025>026-131000-
   North Central Minnesota

CITY           SKY/WX    TMP DP  RH WIND       PRES   REMARKS
BAUDETTE       CLOUDY    15  13  91 E10       29.44F WCI   2
FLAG ISLAND    CLOUDY    14  10  85 E5        29.48R WCI   6
INTL FALLS     LGT SNOW  15  11  83 E8        29.49R VSB 3/4 WCI   4
WASKISH        CLOUDY    18  16  93 E7        29.43S WCI   8
BIG FORK       CLOUDY    14  10  85 SE7       29.43F WCI   4
LONGVILLE      LGT SNOW  19  18  93 CALM      29.41R VSB 3/4
GRAND RAPIDS   LGT SNOW  14  12  92 E6        29.44R FOG     WCI   5
CRANE LAKE     LGT SNOW  14  12  92 CALM      29.51F
ORR            CLOUDY    16  12  86 SE6       29.43F WCI   7
COOK           CLOUDY    16  12  86 SE5       29.47F WCI   9
WALKER         FLURRIES  22  20  93 E3        29.38F
$$
MNZ012-019>021-037-131000-
   Northeast Minnesota

CITY           SKY/WX    TMP DP  RH WIND       PRES   REMARKS
DULUTH         LGT SNOW  15  14  95 E12       29.46F VSB 1   WCI   2
ELY            LGT SNOW  16  12  86 SE8       29.48F WCI   5
HIBBING        CLOUDY    14  13  95 E8        29.46S WCI   3
EVELETH        CLOUDY    15  12  87 E7        29.47F WCI   5
DULUTH HARBOR  FLURRIES  19  16  86 E10       29.53F WCI   8
TWO HARBORS    LGT SNOW  21  16  79 E6        29.50S VSB 1   WCI  14
SILVER BAY     CLOUDY    19  19 100 E9        29.52F WCI   9
GRAND MARAIS     N/A     23  19  85 E13       29.61F WCI  11
G MARAIS ARPRT SNOW      14   9  79 E6        29.52F VSB 1/2 WCI   5
$$
MNZ029>031-032-039>041-046>048-054>057-064-131000-
   West Central Minnesota

CITY           SKY/WX    TMP DP  RH WIND       PRES   REMARKS
FERGUS FALLS   CLOUDY    34  28  80 NW20      29.42R WCI  22
WHEATON        CLOUDY    41  25  52 W18G26    29.43R
MORRIS         CLOUDY    39  27  60 NW20      29.37R
ALEXANDRIA     CLOUDY    30  26  85 CALM      29.34F
ELBOW LAKE     FAIR      32  27  81 NW15      29.39R WCI  22
WADENA         CLOUDY    23  23 100 CALM      29.37R
GLENWOOD       CLOUDY    30  27  86 W12       29.35S WCI  21
APPLETON       CLOUDY    43  27  52 NW18      29.37F
BENSON         CLOUDY    34  27  75 NW12      29.37F WCI  25
ORTONVILLE     CLOUDY    43  25  49 NW21G29   29.40R
MADISON        CLOUDY    46  27  46 NW24G31   29.40R
WILLMAR        FAIR      30  27  86 SW6       29.37F WCI  24
$$
MNZ033>034-036-042>043-049>051-058-059-131000-
   Central Minnesota

CITY           SKY/WX    TMP DP  RH WIND       PRES   REMARKS
ST CLOUD       CLOUDY    23  21  92 CALM      29.39F
SAUK CENTRE    FAIR      28  26  91 CALM      29.37S
PAYNESVILLE    CLOUDY    31  28  88 CALM      29.36F
AITKIN         LGT SNOW  19  18  93 CALM      29.38F
PINE RIVER     CLOUDY    19  18  93 CALM      29.43R
BRAINERD       CLOUDY    22  19  89 SE6       29.37F WCI  14
STAPLES        CLOUDY    21  19  93 SE5       29.34F WCI  15
LONG PRAIRIE   FAIR      23  21  93 NE5       29.36F WCI  17
LITTLE FALLS   CLOUDY    25  19  80 CALM      29.38F
LITCHFIELD     CLOUDY    30  28  93 CALM      29.36F
BUFFALO        CLOUDY    30  25  83 E3        29.40F
MAPLE LAKE     CLOUDY    30  28  90 CALM      29.39F
HUTCHINSON     CLOUDY    30  27  87 S5        29.38F WCI  25
$$
MNZ037-044-045-052-053-131000-
   East Central Minnesota

CITY           SKY/WX    TMP DP  RH WIND       PRES   REMARKS
PRINCETON      CLOUDY    27  25  93 CALM      29.39F
MORA           CLOUDY    21  19  93 E6        29.41F WCI  14
CAMBRIDGE      CLOUDY    27  19  74 E6        29.39F WCI  20
RUSH CITY      CLOUDY    22  19  87 SE7       29.43F WCI  13
MOOSE LAKE     LGT SNOW  19  14  79 CALM      29.44S
HINCKLEY       MIX PCPN  21  19  93 E8        29.43F WCI  12
CLOQUET        LGT SNOW  14  10  85 E6        29.45S WCI   5
MCGREGOR       CLOUDY    19  16  86 SE9       29.40F WCI   9
$$
MNZ071>073-080-081-089-090-097-098-131000-
   Southwest Minnesota

CITY           SKY/WX    TMP DP  RH WIND       PRES   REMARKS
MONTEVIDEO     CLOUDY    43  27  52 NW12G20   29.37F
GRANITE FALLS  CLOUDY    42  28  58 W17       29.40S
CANBY          CLOUDY    45  25  44 NW23G30   29.44R
MARSHALL       CLOUDY    44  24  45 NW23G32   29.40F
REDWOOD FALLS  CLOUDY    39  25  57 W13       29.37F
OLIVIA         CLOUDY    32  28  86 SW7       29.36F WCI  26
PIPESTONE      PTCLDY    39  25  56 NW15      29.46F
WINDOM         CLOUDY    37  21  52 W21G26    29.41F
WORTHINGTON    CLOUDY    35  23  61 SW15      29.46F WCI  25
JACKSON        CLOUDY    36  25  64 MISG      29.44F
TRACY          PTCLDY    41  27  56 W12G18    29.41F
SLAYTON        PTCLDY    37  25  60 W21       29.44F
$$
MNZ065>067-074>077-082>085-091>093-131000-
   South Central Minnesota

CITY           SKY/WX    TMP DP  RH WIND       PRES   REMARKS
MANKATO        CLOUDY    30  25  81 S8        29.40F WCI  22
NEW ULM        CLOUDY    30  25  80 SW9       29.39F WCI  22
ST JAMES       CLOUDY    34  25  69 SW9       29.42F WCI  26
FAIRMONT       PTCLDY    33  24  69 SW12      29.43F WCI  24
GLENCOE        CLOUDY    32  28  84 S6        29.38F WCI  26
FARIBAULT      CLOUDY    30  25  80 S10       29.42F WCI  21
OWATONNA       CLOUDY    28  25  86 S10       29.43F WCI  19
WASECA         CLOUDY    32  27  80 S8        29.43F WCI  25
ALBERT LEA     CLOUDY    30  21  69 S10       29.44F WCI  21
$$
MNZ078>079-086>088-094>096-131000-
   Southeast Minnesota

CITY           SKY/WX    TMP DP  RH WIND       PRES   REMARKS
ROCHESTER      CLOUDY    27  23  85 S16       29.45F WCI  15
RED WING       CLOUDY    28  21  74 SE8       29.46F WCI  20
STANTON        CLOUDY    32  26  77 S10       29.41F WCI  24
DODGE CENTER   CLOUDY    27  23  86 S14       29.44F WCI  15
WINONA         CLOUDY    28  21  74 SE6       29.54F WCI  22
AUSTIN         CLOUDY    27  21  80 S9        29.45F WCI  17
PRESTON        CLOUDY    26  21  82 S17       29.49F WCI  13
$$
ABBREVIATIONS USED IN REMARKS
   TC - TEMPERATURES IN CELSIUS
  WCI - WIND CHILL INDEX
   HX - HEAT INDEX
  VSB - VISIBILITY
$$




USA.gov is the U.S. government's official web portal to all federal, state and local government web resources and services.